| time (UTC) | temp F | wind direction | speed MPH | gust MPH | rain 1hr in | rain 24hr in | rain mn in | humidity % | barometer mb |
| 20260904104043 | 65 | 0 | 0.0 | 0.0 | 0.00 | 0.00 | 0.00 | 90 | 1020.5 |
| 20260904103544 | 66 | 0 | 0.0 | 0.0 | 0.00 | 0.00 | 0.00 | 90 | 1020.6 |
| 20260904103110 | 66 | 0 | 0.0 | 1.0 | 0.00 | 0.00 | 0.00 | 91 | 1020.5 |
| 20260904102545 | 66 | 0 | 0.0 | 1.0 | 0.00 | 0.00 | 0.00 | 90 | 1020.3 |
| 20260904102045 | 66 | 0 | 0.0 | 0.0 | 0.00 | 0.00 | 0.00 | 89 | 1020.3 |
| 20260904101601 | 66 | 0 | 0.0 | 0.0 | 0.00 | 0.00 | 0.00 | 90 | 1020.3 |
| 20260904101045 | 66 | 0 | 0.0 | 0.0 | 0.00 | 0.00 | 0.00 | 90 | 1020.3 |
| 20260904100545 | 66 | 0 | 0.0 | 0.0 | 0.00 | 0.00 | 0.00 | 89 | 1020.2 |
| 20260904100126 | 67 | 0 | 0.0 | 0.0 | 0.00 | 0.00 | 0.00 | 88 | 1020.2 |
| 20260904095548 | 67 | 0 | 0.0 | 0.0 | 0.00 | 0.00 | 0.00 | 88 | 1020.1 |
| 20260904095044 | 67 | 0 | 0.0 | 0.0 | 0.00 | 0.00 | 0.00 | 88 | 1020.1 |
| 20260904094556 | 68 | 0 | 0.0 | 0.0 | 0.00 | 0.00 | 0.00 | 87 | 1020.1 |
| 20260904094044 | 68 | 0 | 0.0 | 0.0 | 0.00 | 0.00 | 0.00 | 88 | 1020.0 |
| 20260904093545 | 68 | 0 | 0.0 | 1.0 | 0.00 | 0.00 | 0.00 | 87 | 1020.0 |
| 20260904093107 | 68 | 0 | 0.0 | 1.0 | 0.00 | 0.00 | 0.00 | 87 | 1019.9 |
| 20260904092544 | 69 | 0 | 0.0 | 1.0 | 0.00 | 0.00 | 0.00 | 87 | 1019.9 |
| 20260904092048 | 69 | 0 | 0.0 | 3.0 | 0.00 | 0.00 | 0.00 | 86 | 1019.8 |
| 20260904091601 | 69 | 0 | 0.0 | 3.0 | 0.00 | 0.00 | 0.00 | 86 | 1019.8 |
| 20260904091045 | 69 | 0 | 0.0 | 1.0 | 0.00 | 0.00 | 0.00 | 85 | 1019.8 |
| 20260904090543 | 69 | 0 | 0.0 | 1.0 | 0.00 | 0.00 | 0.00 | 85 | 1019.7 |
| 20260904090055 | 69 | 0 | 0.0 | 1.0 | 0.00 | 0.00 | 0.00 | 85 | 1019.6 |
| 20260904085543 | 69 | 0 | 0.0 | 1.0 | 0.00 | 0.00 | 0.00 | 85 | 1019.7 |
| 20260904085044 | 69 | 0 | 0.0 | 1.0 | 0.00 | 0.00 | 0.00 | 84 | 1019.6 |
| 20260904084609 | 70 | 0 | 0.0 | 0.0 | 0.00 | 0.00 | 0.00 | 83 | 1019.7 |
| 20260904084044 | 70 | 0 | 0.0 | 0.0 | 0.00 | 0.00 | 0.00 | 83 | 1019.6 |
| 20260904083544 | 70 | 0 | 0.0 | 0.0 | 0.00 | 0.00 | 0.00 | 82 | 1019.6 |
| 20260904083102 | 71 | 0 | 0.0 | 0.0 | 0.00 | 0.00 | 0.00 | 82 | 1019.5 |
| 20260904082544 | 71 | 0 | 0.0 | 0.0 | 0.00 | 0.00 | 0.00 | 82 | 1019.5 |
| 20260904082044 | 71 | 0 | 0.0 | 0.0 | 0.00 | 0.00 | 0.00 | 81 | 1019.5 |
| 20260904081600 | 71 | 0 | 0.0 | 6.0 | 0.00 | 0.00 | 0.00 | 80 | 1019.4 |
| 20260904081043 | 72 | 0 | 0.0 | 6.0 | 0.00 | 0.00 | 0.00 | 80 | 1019.3 |
| 20260904080544 | 72 | 51 | 1.0 | 6.0 | 0.00 | 0.00 | 0.00 | 80 | 1019.3 |
| 20260904080056 | 72 | 0 | 0.0 | 7.0 | 0.00 | 0.00 | 0.00 | 79 | 1019.2 |
| 20260904075543 | 73 | 0 | 1.0 | 7.0 | 0.00 | 0.00 | 0.00 | 79 | 1019.2 |
| 20260904075043 | 73 | 69 | 1.0 | 6.0 | 0.00 | 0.00 | 0.00 | 78 | 1019.1 |
| 20260904074610 | 73 | 325 | 0.0 | 1.0 | 0.00 | 0.00 | 0.00 | 77 | 1018.8 |
| 20260904074044 | 73 | 0 | 0.0 | 1.0 | 0.00 | 0.00 | 0.00 | 76 | 1018.7 |
| 20260904073544 | 73 | 0 | 0.0 | 4.0 | 0.00 | 0.00 | 0.00 | 75 | 1018.7 |
| 20260904073058 | 74 | 0 | 0.0 | 4.0 | 0.00 | 0.00 | 0.00 | 75 | 1018.6 |
| 20260904072546 | 74 | 0 | 0.0 | 4.0 | 0.00 | 0.00 | 0.00 | 74 | 1018.5 |
| 20260904072044 | 75 | 0 | 0.0 | 1.0 | 0.00 | 0.00 | 0.00 | 73 | 1018.5 |
| 20260904071626 | 75 | 0 | 0.0 | 3.0 | 0.00 | 0.00 | 0.00 | 72 | 1018.5 |
| 20260904071044 | 75 | 0 | 0.0 | 10.0 | 0.00 | 0.00 | 0.00 | 72 | 1018.4 |
| 20260904070544 | 75 | 0 | 1.0 | 10.0 | 0.00 | 0.00 | 0.00 | 71 | 1018.1 |
| 20260904070109 | 76 | 0 | 0.0 | 9.0 | 0.00 | 0.00 | 0.00 | 70 | 1018.1 |
| 20260904065543 | 76 | 0 | 1.0 | 9.0 | 0.00 | 0.00 | 0.00 | 69 | 1018.0 |
| 20260904065043 | 76 | 0 | 0.0 | 14.0 | 0.00 | 0.00 | 0.00 | 68 | 1018.0 |
| 20260904064606 | 77 | 0 | 2.0 | 14.0 | 0.00 | 0.00 | 0.00 | 67 | 1018.0 |
| 20260904064044 | 77 | 0 | 1.0 | 13.0 | 0.00 | 0.00 | 0.00 | 66 | 1017.9 |
| 20260904063543 | 78 | 79 | 3.0 | 13.0 | 0.00 | 0.00 | 0.00 | 65 | 1017.9 |
| 20260904063056 | 78 | 0 | 1.0 | 11.0 | 0.00 | 0.00 | 0.00 | 62 | 1017.9 |
| 20260904062545 | 79 | 94 | 1.0 | 11.0 | 0.00 | 0.00 | 0.00 | 62 | 1017.8 |
| 20260904062044 | 79 | 0 | 5.0 | 11.0 | 0.00 | 0.00 | 0.00 | 61 | 1017.8 |
| 20260904061557 | 80 | 27 | 3.0 | 11.0 | 0.00 | 0.00 | 0.00 | 58 | 1017.8 |
| 20260904061045 | 80 | 0 | 0.0 | 11.0 | 0.00 | 0.00 | 0.00 | 55 | 1017.7 |
| 20260904060544 | 81 | 0 | 3.0 | 11.0 | 0.00 | 0.00 | 0.00 | 53 | 1017.5 |
| 20260904060057 | 81 | 86 | 0.0 | 12.0 | 0.00 | 0.00 | 0.00 | 51 | 1017.5 |
| 20260904055544 | 81 | 0 | 4.0 | 12.0 | 0.00 | 0.00 | 0.00 | 51 | 1017.3 |
| 20260904055043 | 83 | 157 | 2.0 | 11.0 | 0.00 | 0.00 | 0.00 | 51 | 1017.3 |
| 20260904054601 | 84 | 0 | 1.0 | 4.0 | 0.00 | 0.00 | 0.00 | 50 | 1017.4 |
| 20260904054043 | 86 | 0 | 0.0 | 2.0 | 0.00 | 0.00 | 0.00 | 46 | 1017.3 |
| 20260904053544 | 88 | 0 | 0.0 | 2.0 | 0.00 | 0.00 | 0.00 | 39 | 1017.4 |
| 20260904053101 | 89 | 0 | 0.0 | 3.0 | 0.00 | 0.00 | 0.00 | 27 | 1017.3 |
| 20260904052544 | 89 | 0 | 0.0 | 8.0 | 0.00 | 0.00 | 0.00 | 27 | 1017.3 |
| 20260904052044 | 89 | 0 | 0.0 | 8.0 | 0.00 | 0.00 | 0.00 | 28 | 1017.2 |
| 20260904051556 | 89 | 248 | 0.0 | 3.0 | 0.00 | 0.00 | 0.00 | 27 | 1017.2 |
| 20260904051045 | 90 | 0 | 0.0 | 1.0 | 0.00 | 0.00 | 0.00 | 27 | 1017.1 |
| 20260904050543 | 90 | 0 | 0.0 | 1.0 | 0.00 | 0.00 | 0.00 | 28 | 1017.1 |
| 20260904045544 | 90 | 0 | 0.0 | 4.0 | 0.00 | 0.00 | 0.00 | 26 | 1017.1 |
| 20260904045041 | 89 | 0 | 0.0 | 6.0 | 0.00 | 0.00 | 0.00 | 26 | 1017.2 |
| 20260904044622 | 90 | 0 | 1.0 | 6.0 | 0.00 | 0.00 | 0.00 | 26 | 1017.1 |
| 20260904044044 | 90 | 0 | 0.0 | 4.0 | 0.00 | 0.00 | 0.00 | 26 | 1017.2 |
| 20260904043543 | 91 | 0 | 0.0 | 4.0 | 0.00 | 0.00 | 0.00 | 26 | 1017.3 |
| 20260904043105 | 90 | 0 | 0.0 | 6.0 | 0.00 | 0.00 | 0.00 | 28 | 1017.2 |
| 20260904042544 | 90 | 0 | 0.0 | 6.0 | 0.00 | 0.00 | 0.00 | 30 | 1017.3 |
| 20260904042044 | 90 | 0 | 0.0 | 4.0 | 0.00 | 0.00 | 0.00 | 29 | 1017.3 |
| 20260904041616 | 90 | 0 | 0.0 | 6.0 | 0.00 | 0.00 | 0.00 | 31 | 1017.3 |
| 20260904041044 | 89 | 0 | 0.0 | 6.0 | 0.00 | 0.00 | 0.00 | 31 | 1017.5 |
| 20260904040549 | 89 | 0 | 0.0 | 6.0 | 0.00 | 0.00 | 0.00 | 31 | 1017.5 |
| 20260904040100 | 89 | 0 | 1.0 | 5.0 | 0.00 | 0.00 | 0.00 | 31 | 1017.7 |
| 20260904035544 | 89 | 0 | 1.0 | 5.0 | 0.00 | 0.00 | 0.00 | 31 | 1017.7 |
| 20260904035043 | 89 | 344 | 0.0 | 10.0 | 0.00 | 0.00 | 0.00 | 31 | 1017.8 |
| 20260904034601 | 88 | 0 | 2.0 | 10.0 | 0.00 | 0.00 | 0.00 | 30 | 1017.8 |
| 20260904034046 | 88 | 0 | 0.0 | 9.0 | 0.00 | 0.00 | 0.00 | 30 | 1018.0 |
| 20260904033544 | 89 | 235 | 0.0 | 9.0 | 0.00 | 0.00 | 0.00 | 30 | 1017.9 |
| 20260904033102 | 89 | 0 | 2.0 | 9.0 | 0.00 | 0.00 | 0.00 | 31 | 1018.0 |
| 20260904032544 | 89 | 208 | 0.0 | 6.0 | 0.00 | 0.00 | 0.00 | 30 | 1018.1 |
| 20260904032043 | 89 | 238 | 1.0 | 6.0 | 0.00 | 0.00 | 0.00 | 30 | 1018.2 |
| 20260904031613 | 90 | 0 | 0.0 | 5.0 | 0.00 | 0.00 | 0.00 | 30 | 1018.2 |
| 20260904031044 | 91 | 219 | 0.0 | 6.0 | 0.00 | 0.00 | 0.00 | 30 | 1018.2 |
| 20260904030544 | 90 | 0 | 0.0 | 6.0 | 0.00 | 0.00 | 0.00 | 29 | 1018.3 |
| 20260904030058 | 91 | 0 | 0.0 | 6.0 | 0.00 | 0.00 | 0.00 | 30 | 1018.3 |
| 20260904025544 | 90 | 0 | 0.0 | 6.0 | 0.00 | 0.00 | 0.00 | 32 | 1018.4 |
| 20260904025044 | 90 | 264 | 0.0 | 6.0 | 0.00 | 0.00 | 0.00 | 32 | 1018.6 |
| 20260904024556 | 89 | 0 | 0.0 | 4.0 | 0.00 | 0.00 | 0.00 | 32 | 1018.6 |
| 20260904024043 | 89 | 238 | 0.0 | 4.0 | 0.00 | 0.00 | 0.00 | 33 | 1018.7 |
| 20260904023542 | 89 | 85 | 0.0 | 3.0 | 0.00 | 0.00 | 0.00 | 32 | 1018.6 |
| 20260904023102 | 88 | 0 | 0.0 | 3.0 | 0.00 | 0.00 | 0.00 | 32 | 1018.6 |
| 20260904022544 | 89 | 0 | 0.0 | 3.0 | 0.00 | 0.00 | 0.00 | 33 | 1019.0 |
| 20260904022043 | 88 | 0 | 0.0 | 3.0 | 0.00 | 0.00 | 0.00 | 35 | 1018.9 |
| 20260904021557 | 89 | 236 | 0.0 | 4.0 | 0.00 | 0.00 | 0.00 | 33 | 1019.0 |
| 20260904021043 | 89 | 0 | 0.0 | 4.0 | 0.00 | 0.00 | 0.00 | 32 | 1019.2 |
| 20260904020543 | 89 | 0 | 0.0 | 5.0 | 0.00 | 0.00 | 0.00 | 34 | 1019.2 |
| 20260904020059 | 88 | 0 | 0.0 | 5.0 | 0.00 | 0.00 | 0.00 | 35 | 1019.2 |
| 20260904015544 | 87 | 0 | 0.0 | 3.0 | 0.00 | 0.00 | 0.00 | 36 | 1019.3 |
| 20260904015042 | 87 | 217 | 0.0 | 3.0 | 0.00 | 0.00 | 0.00 | 35 | 1019.3 |
| 20260904014557 | 87 | 0 | 0.0 | 7.0 | 0.00 | 0.00 | 0.00 | 36 | 1019.4 |
| 20260904014044 | 86 | 0 | 2.0 | 7.0 | 0.00 | 0.00 | 0.00 | 37 | 1019.6 |
| 20260904013544 | 87 | 169 | 0.0 | 5.0 | 0.00 | 0.00 | 0.00 | 37 | 1019.7 |
| 20260904013059 | 87 | 0 | 0.0 | 5.0 | 0.00 | 0.00 | 0.00 | 37 | 1019.7 |
| 20260904012544 | 88 | 0 | 0.0 | 4.0 | 0.00 | 0.00 | 0.00 | 37 | 1019.9 |
| 20260904012043 | 88 | 0 | 0.0 | 2.0 | 0.00 | 0.00 | 0.00 | 36 | 1020.0 |
| 20260904011556 | 87 | 262 | 0.0 | 4.0 | 0.00 | 0.00 | 0.00 | 37 | 1020.1 |
| 20260904011044 | 87 | 267 | 0.0 | 4.0 | 0.00 | 0.00 | 0.00 | 38 | 1020.2 |
| 20260904010543 | 88 | 0 | 0.0 | 4.0 | 0.00 | 0.00 | 0.00 | 39 | 1020.2 |
| 20260904010052 | 88 | 242 | 0.0 | 3.0 | 0.00 | 0.00 | 0.00 | 39 | 1020.3 |
| 20260904005543 | 88 | 0 | 0.0 | 4.0 | 0.00 | 0.00 | 0.00 | 39 | 1020.5 |
| 20260904005044 | 88 | 0 | 0.0 | 4.0 | 0.00 | 0.00 | 0.00 | 39 | 1020.5 |
| 20260904004559 | 87 | 0 | 0.0 | 4.0 | 0.00 | 0.00 | 0.00 | 39 | 1020.5 |
| 20260904004044 | 86 | 0 | 0.0 | 1.0 | 0.00 | 0.00 | 0.00 | 41 | 1020.6 |
| 20260904003544 | 85 | 0 | 0.0 | 3.0 | 0.00 | 0.00 | 0.00 | 41 | 1020.6 |
| 20260904003056 | 86 | 0 | 0.0 | 3.0 | 0.00 | 0.00 | 0.00 | 40 | 1020.7 |
| 20260904002544 | 87 | 0 | 0.0 | 2.0 | 0.00 | 0.00 | 0.00 | 42 | 1020.7 |
| 20260904002044 | 86 | 0 | 0.0 | 1.0 | 0.00 | 0.00 | 0.00 | 43 | 1020.7 |
| 20260904001600 | 85 | 0 | 0.0 | 6.0 | 0.00 | 0.00 | 0.00 | 43 | 1020.8 |
| 20260904001043 | 85 | 0 | 0.0 | 6.0 | 0.00 | 0.00 | 0.00 | 42 | 1020.9 |
| 20260904000546 | 85 | 0 | 0.0 | 1.0 | 0.00 | 0.00 | 0.00 | 44 | 1020.9 |
| 20260903235546 | 85 | 0 | 0.0 | 2.0 | 0.00 | 0.00 | 0.00 | 44 | 1021.0 |
| 20260903235044 | 84 | 0 | 0.0 | 2.0 | 0.00 | 0.00 | 0.00 | 45 | 1020.9 |
| 20260903234600 | 84 | 0 | 0.0 | 1.0 | 0.00 | 0.00 | 0.00 | 45 | 1021.0 |
| 20260903234043 | 83 | 0 | 0.0 | 5.0 | 0.00 | 0.00 | 0.00 | 46 | 1021.1 |
| 20260903233543 | 82 | 0 | 0.0 | 5.0 | 0.00 | 0.00 | 0.00 | 47 | 1021.1 |
| 20260903233055 | 82 | 0 | 0.0 | 3.0 | 0.00 | 0.00 | 0.00 | 47 | 1021.1 |
| 20260903232543 | 82 | 0 | 0.0 | 3.0 | 0.00 | 0.00 | 0.00 | 47 | 1021.1 |
| 20260903232043 | 82 | 0 | 0.0 | 3.0 | 0.00 | 0.00 | 0.00 | 46 | 1021.1 |
| 20260903231602 | 82 | 0 | 0.0 | 1.0 | 0.00 | 0.00 | 0.00 | 49 | 1021.1 |
| 20260903231043 | 81 | 0 | 0.0 | 1.0 | 0.00 | 0.00 | 0.00 | 49 | 1021.2 |
| 20260903230543 | 81 | 240 | 0.0 | 3.0 | 0.00 | 0.00 | 0.00 | 51 | 1021.2 |
| 20260903225542 | 79 | 0 | 0.0 | 3.0 | 0.00 | 0.00 | 0.00 | 53 | 1021.2 |
| 20260903225043 | 79 | 0 | 0.0 | 3.0 | 0.00 | 0.00 | 0.00 | 53 | 1021.1 |
| 20260903224558 | 79 | 0 | 0.0 | 1.0 | 0.00 | 0.00 | 0.00 | 55 | 1021.3 |
| 20260903224043 | 79 | 0 | 0.0 | 2.0 | 0.00 | 0.00 | 0.00 | 58 | 1021.3 |
| 20260903223543 | 78 | 0 | 0.0 | 2.0 | 0.00 | 0.00 | 0.00 | 57 | 1021.2 |
| 20260903223102 | 78 | 0 | 0.0 | 2.0 | 0.00 | 0.00 | 0.00 | 58 | 1021.2 |
| 20260903222544 | 77 | 0 | 0.0 | 2.0 | 0.00 | 0.00 | 0.00 | 63 | 1021.1 |
| 20260903222041 | 76 | 0 | 0.0 | 2.0 | 0.00 | 0.00 | 0.00 | 65 | 1021.3 |
| 20260903221558 | 76 | 0 | 0.0 | 0.0 | 0.00 | 0.00 | 0.00 | 65 | 1021.2 |
| 20260903221045 | 74 | 0 | 0.0 | 0.0 | 0.00 | 0.00 | 0.00 | 69 | 1021.1 |
| 20260903220543 | 73 | 0 | 0.0 | 0.0 | 0.00 | 0.00 | 0.00 | 73 | 1021.0 |
| 20260903220055 | 71 | 0 | 0.0 | 0.0 | 0.00 | 0.00 | 0.00 | 75 | 1020.9 |
| 20260903215545 | 70 | 0 | 0.0 | 0.0 | 0.00 | 0.00 | 0.00 | 75 | 1020.9 |
| 20260903215043 | 69 | 0 | 0.0 | 0.0 | 0.00 | 0.00 | 0.00 | 78 | 1020.9 |
| 20260903214604 | 69 | 0 | 0.0 | 0.0 | 0.00 | 0.00 | 0.00 | 77 | 1020.8 |
| 20260903214047 | 68 | 0 | 0.0 | 0.0 | 0.00 | 0.00 | 0.00 | 80 | 1020.9 |
| 20260903213544 | 68 | 0 | 0.0 | 0.0 | 0.00 | 0.00 | 0.00 | 81 | 1020.8 |
| 20260903213059 | 66 | 0 | 0.0 | 0.0 | 0.00 | 0.00 | 0.00 | 88 | 1020.9 |
| 20260903212545 | 64 | 0 | 0.0 | 0.0 | 0.00 | 0.00 | 0.00 | 91 | 1020.7 |
| 20260903212044 | 63 | 0 | 0.0 | 0.0 | 0.00 | 0.00 | 0.00 | 93 | 1020.7 |
| 20260903211602 | 62 | 0 | 0.0 | 0.0 | 0.00 | 0.00 | 0.00 | 93 | 1020.7 |
| 20260903211046 | 61 | 0 | 0.0 | 0.0 | 0.00 | 0.00 | 0.00 | 94 | 1020.7 |
| 20260903210546 | 61 | 0 | 0.0 | 0.0 | 0.00 | 0.00 | 0.00 | 95 | 1020.6 |
| 20260903210107 | 60 | 0 | 0.0 | 0.0 | 0.00 | 0.00 | 0.00 | 97 | 1020.4 |
| 20260903205543 | 59 | 0 | 0.0 | 0.0 | 0.00 | 0.00 | 0.00 | 97 | 1020.4 |
| 20260903205046 | 58 | 0 | 0.0 | 0.0 | 0.00 | 0.00 | 0.00 | 97 | 1020.4 |
| 20260903204602 | 58 | 0 | 0.0 | 0.0 | 0.00 | 0.00 | 0.00 | 96 | 1020.1 |
| 20260903204042 | 57 | 0 | 0.0 | 0.0 | 0.00 | 0.00 | 0.00 | 96 | 1020.1 |
| 20260903203543 | 57 | 0 | 0.0 | 0.0 | 0.00 | 0.00 | 0.00 | 96 | 1020.1 |
| 20260903203104 | 57 | 0 | 0.0 | 0.0 | 0.00 | 0.00 | 0.00 | 96 | 1020.1 |
| 20260903202543 | 57 | 0 | 0.0 | 0.0 | 0.00 | 0.00 | 0.00 | 96 | 1020.1 |
| 20260903202044 | 57 | 0 | 0.0 | 0.0 | 0.00 | 0.00 | 0.00 | 96 | 1020.0 |
| 20260903201556 | 57 | 0 | 0.0 | 0.0 | 0.00 | 0.00 | 0.00 | 96 | 1020.0 |
| 20260903201044 | 57 | 0 | 0.0 | 0.0 | 0.00 | 0.00 | 0.00 | 96 | 1019.8 |
| 20260903200544 | 57 | 0 | 0.0 | 0.0 | 0.00 | 0.00 | 0.00 | 96 | 1019.8 |
| 20260903200054 | 56 | 0 | 0.0 | 0.0 | 0.00 | 0.00 | 0.00 | 96 | 1019.7 |
| 20260903195546 | 56 | 0 | 0.0 | 0.0 | 0.00 | 0.00 | 0.00 | 95 | 1019.8 |
| 20260903195043 | 56 | 0 | 0.0 | 0.0 | 0.00 | 0.00 | 0.00 | 95 | 1019.6 |
| 20260903194559 | 57 | 0 | 0.0 | 0.0 | 0.00 | 0.00 | 0.00 | 95 | 1019.5 |
| 20260903194044 | 57 | 0 | 0.0 | 0.0 | 0.00 | 0.00 | 0.00 | 95 | 1019.5 |
| 20260903193543 | 58 | 0 | 0.0 | 0.0 | 0.00 | 0.00 | 0.00 | 95 | 1019.5 |
| 20260903193101 | 59 | 0 | 0.0 | 0.0 | 0.00 | 0.00 | 0.00 | 96 | 1019.5 |
| 20260903192543 | 59 | 0 | 0.0 | 0.0 | 0.00 | 0.00 | 0.00 | 96 | 1019.5 |
| 20260903192042 | 59 | 0 | 0.0 | 0.0 | 0.00 | 0.00 | 0.00 | 96 | 1019.4 |
| 20260903191600 | 59 | 0 | 0.0 | 0.0 | 0.00 | 0.00 | 0.00 | 97 | 1019.3 |
| 20260903191044 | 59 | 0 | 0.0 | 0.0 | 0.00 | 0.00 | 0.00 | 97 | 1019.4 |
| 20260903190543 | 59 | 0 | 0.0 | 0.0 | 0.00 | 0.00 | 0.00 | 97 | 1019.4 |
| 20260903190056 | 58 | 0 | 0.0 | 0.0 | 0.00 | 0.00 | 0.00 | 97 | 1019.4 |
| 20260903185543 | 57 | 0 | 0.0 | 0.0 | 0.00 | 0.00 | 0.00 | 96 | 1019.3 |
| 20260903185043 | 57 | 0 | 0.0 | 0.0 | 0.00 | 0.00 | 0.00 | 96 | 1019.3 |
| 20260903184551 | 57 | 0 | 0.0 | 0.0 | 0.00 | 0.00 | 0.00 | 96 | 1019.2 |
| 20260903184042 | 57 | 0 | 0.0 | 0.0 | 0.00 | 0.00 | 0.00 | 95 | 1019.1 |
| 20260903183543 | 58 | 0 | 0.0 | 0.0 | 0.00 | 0.00 | 0.00 | 96 | 1019.1 |
| 20260903183058 | 57 | 0 | 0.0 | 0.0 | 0.00 | 0.00 | 0.00 | 96 | 1018.9 |
| 20260903182541 | 57 | 0 | 0.0 | 0.0 | 0.00 | 0.00 | 0.00 | 96 | 1019.1 |
| 20260903182044 | 57 | 0 | 0.0 | 0.0 | 0.00 | 0.00 | 0.00 | 95 | 1018.9 |
| 20260903181602 | 58 | 0 | 0.0 | 0.0 | 0.00 | 0.00 | 0.00 | 95 | 1018.8 |
| 20260903181043 | 58 | 0 | 0.0 | 0.0 | 0.00 | 0.00 | 0.00 | 95 | 1018.9 |
| 20260903180547 | 58 | 0 | 0.0 | 0.0 | 0.00 | 0.00 | 0.00 | 96 | 1018.8 |
| 20260903180117 | 58 | 0 | 0.0 | 0.0 | 0.00 | 0.00 | 0.00 | 95 | 1018.8 |
| 20260903175546 | 58 | 309 | 0.0 | 0.0 | 0.00 | 0.00 | 0.00 | 96 | 1018.8 |
| 20260903175043 | 58 | 0 | 0.0 | 0.0 | 0.00 | 0.00 | 0.00 | 95 | 1018.7 |
| 20260903174604 | 57 | 0 | 0.0 | 1.0 | 0.00 | 0.00 | 0.00 | 95 | 1018.6 |
| 20260903174042 | 57 | 0 | 0.0 | 1.0 | 0.00 | 0.00 | 0.00 | 94 | 1018.7 |
| 20260903173543 | 57 | 309 | 0.0 | 1.0 | 0.00 | 0.00 | 0.00 | 94 | 1018.8 |
| 20260903173103 | 58 | 0 | 0.0 | 0.0 | 0.00 | 0.00 | 0.00 | 95 | 1018.8 |
| 20260903172547 | 58 | 0 | 0.0 | 0.0 | 0.00 | 0.00 | 0.00 | 95 | 1018.7 |
| 20260903172046 | 57 | 0 | 0.0 | 0.0 | 0.00 | 0.00 | 0.00 | 95 | 1018.8 |
| 20260903171604 | 57 | 0 | 0.0 | 0.0 | 0.00 | 0.00 | 0.00 | 94 | 1018.8 |
| 20260903171045 | 57 | 0 | 0.0 | 0.0 | 0.00 | 0.00 | 0.00 | 94 | 1018.8 |
| 20260903170543 | 58 | 0 | 0.0 | 0.0 | 0.00 | 0.00 | 0.00 | 94 | 1018.7 |
| 20260903170109 | 58 | 0 | 0.0 | 0.0 | 0.00 | 0.00 | 0.00 | 94 | 1018.7 |
| 20260903165549 | 58 | 0 | 0.0 | 1.0 | 0.00 | 0.00 | 0.00 | 94 | 1018.7 |
| 20260903165046 | 58 | 0 | 0.0 | 1.0 | 0.00 | 0.00 | 0.00 | 93 | 1018.7 |
| 20260903164610 | 58 | 310 | 1.0 | 1.0 | 0.00 | 0.00 | 0.00 | 93 | 1018.8 |
| 20260903164043 | 58 | 310 | 0.0 | 1.0 | 0.00 | 0.00 | 0.00 | 94 | 1018.8 |
| 20260903163542 | 58 | 0 | 0.0 | 0.0 | 0.00 | 0.00 | 0.00 | 94 | 1018.8 |
| 20260903163107 | 58 | 0 | 0.0 | 0.0 | 0.00 | 0.00 | 0.00 | 94 | 1018.8 |
| 20260903162543 | 58 | 0 | 0.0 | 0.0 | 0.00 | 0.00 | 0.00 | 93 | 1018.8 |
| 20260903162044 | 58 | 0 | 0.0 | 1.0 | 0.00 | 0.00 | 0.00 | 93 | 1018.8 |
| 20260903161603 | 58 | 0 | 0.0 | 1.0 | 0.00 | 0.00 | 0.00 | 93 | 1018.8 |
| 20260903161049 | 59 | 0 | 0.0 | 1.0 | 0.00 | 0.00 | 0.00 | 93 | 1018.8 |
| 20260903160543 | 59 | 0 | 0.0 | 0.0 | 0.00 | 0.00 | 0.00 | 93 | 1018.9 |
| 20260903160127 | 59 | 0 | 0.0 | 0.0 | 0.00 | 0.00 | 0.00 | 93 | 1018.8 |
| 20260903155545 | 59 | 0 | 0.0 | 0.0 | 0.00 | 0.00 | 0.00 | 93 | 1018.8 |
| 20260903155043 | 59 | 0 | 0.0 | 0.0 | 0.00 | 0.00 | 0.00 | 92 | 1018.8 |
| 20260903154605 | 59 | 0 | 0.0 | 1.0 | 0.00 | 0.00 | 0.00 | 92 | 1018.7 |
| 20260903154043 | 59 | 0 | 0.0 | 1.0 | 0.00 | 0.00 | 0.00 | 92 | 1018.8 |
| 20260903153542 | 59 | 310 | 0.0 | 1.0 | 0.00 | 0.00 | 0.00 | 92 | 1018.7 |
| 20260903153056 | 59 | 0 | 0.0 | 1.0 | 0.00 | 0.00 | 0.00 | 92 | 1018.6 |
| 20260903152546 | 60 | 310 | 0.0 | 1.0 | 0.00 | 0.00 | 0.00 | 92 | 1018.7 |
| 20260903152046 | 60 | 0 | 0.0 | 1.0 | 0.00 | 0.00 | 0.00 | 92 | 1018.7 |
| 20260903151605 | 60 | 310 | 0.0 | 1.0 | 0.00 | 0.00 | 0.00 | 92 | 1018.8 |
| 20260903151043 | 60 | 0 | 0.0 | 1.0 | 0.00 | 0.00 | 0.00 | 91 | 1018.8 |
| 20260903150544 | 60 | 0 | 0.0 | 1.0 | 0.00 | 0.00 | 0.00 | 91 | 1018.7 |
| 20260903145543 | 61 | 0 | 0.0 | 0.0 | 0.00 | 0.00 | 0.00 | 91 | 1018.7 |
| 20260903145043 | 61 | 0 | 0.0 | 0.0 | 0.00 | 0.00 | 0.00 | 90 | 1018.7 |
| 20260903144557 | 61 | 0 | 0.0 | 0.0 | 0.00 | 0.00 | 0.00 | 90 | 1018.8 |
| 20260903144045 | 61 | 0 | 0.0 | 0.0 | 0.00 | 0.00 | 0.00 | 91 | 1018.7 |
| 20260903143542 | 61 | 0 | 0.0 | 0.0 | 0.00 | 0.00 | 0.00 | 91 | 1018.7 |
| 20260903143101 | 61 | 0 | 0.0 | 0.0 | 0.00 | 0.00 | 0.00 | 90 | 1018.6 |
| 20260903142544 | 61 | 0 | 0.0 | 0.0 | 0.00 | 0.00 | 0.00 | 90 | 1018.6 |
| 20260903142043 | 61 | 0 | 0.0 | 0.0 | 0.00 | 0.00 | 0.00 | 90 | 1018.7 |
| 20260903141602 | 62 | 0 | 0.0 | 0.0 | 0.00 | 0.00 | 0.00 | 90 | 1018.7 |
| 20260903141043 | 62 | 0 | 0.0 | 0.0 | 0.00 | 0.00 | 0.00 | 89 | 1018.7 |
| 20260903140544 | 62 | 0 | 0.0 | 1.0 | 0.00 | 0.00 | 0.00 | 89 | 1018.7 |
| 20260903140100 | 62 | 0 | 0.0 | 1.0 | 0.00 | 0.00 | 0.00 | 89 | 1018.6 |
| 20260903135543 | 62 | 310 | 0.0 | 1.0 | 0.00 | 0.00 | 0.00 | 89 | 1018.6 |
| 20260903135043 | 62 | 0 | 0.0 | 0.0 | 0.00 | 0.00 | 0.00 | 89 | 1018.6 |
| 20260903134555 | 62 | 0 | 0.0 | 0.0 | 0.00 | 0.00 | 0.00 | 89 | 1018.6 |
| 20260903134042 | 63 | 0 | 0.0 | 0.0 | 0.00 | 0.00 | 0.00 | 88 | 1018.5 |
| 20260903133544 | 63 | 0 | 0.0 | 0.0 | 0.00 | 0.00 | 0.00 | 88 | 1018.5 |
| 20260903133055 | 63 | 0 | 0.0 | 0.0 | 0.00 | 0.00 | 0.00 | 88 | 1018.5 |
| 20260903132545 | 63 | 0 | 0.0 | 1.0 | 0.00 | 0.00 | 0.00 | 88 | 1018.5 |
| 20260903132043 | 64 | 0 | 0.0 | 1.0 | 0.00 | 0.00 | 0.00 | 88 | 1018.5 |
| 20260903131605 | 64 | 0 | 0.0 | 1.0 | 0.00 | 0.00 | 0.00 | 88 | 1018.6 |
| 20260903131043 | 64 | 0 | 0.0 | 0.0 | 0.00 | 0.00 | 0.00 | 87 | 1018.6 |
| 20260903130548 | 64 | 0 | 0.0 | 0.0 | 0.00 | 0.00 | 0.00 | 86 | 1018.6 |
| 20260903130125 | 65 | 0 | 0.0 | 0.0 | 0.00 | 0.00 | 0.00 | 85 | 1018.6 |
| 20260903125543 | 65 | 0 | 0.0 | 0.0 | 0.00 | 0.00 | 0.00 | 85 | 1018.6 |
| 20260903125046 | 65 | 0 | 0.0 | 0.0 | 0.00 | 0.00 | 0.00 | 85 | 1018.5 |
| 20260903124558 | 65 | 0 | 0.0 | 0.0 | 0.00 | 0.00 | 0.00 | 85 | 1018.6 |
| 20260903124044 | 65 | 0 | 0.0 | 0.0 | 0.00 | 0.00 | 0.00 | 84 | 1018.6 |
| 20260903123543 | 66 | 0 | 0.0 | 0.0 | 0.00 | 0.00 | 0.00 | 83 | 1018.6 |
| 20260903123053 | 66 | 0 | 0.0 | 0.0 | 0.00 | 0.00 | 0.00 | 84 | 1018.5 |
| 20260903122543 | 66 | 0 | 0.0 | 0.0 | 0.00 | 0.00 | 0.00 | 83 | 1018.5 |
| 20260903122047 | 67 | 0 | 0.0 | 0.0 | 0.00 | 0.00 | 0.00 | 82 | 1018.5 |
| 20260903121553 | 67 | 0 | 0.0 | 0.0 | 0.00 | 0.00 | 0.00 | 81 | 1018.5 |
| 20260903121042 | 68 | 0 | 0.0 | 0.0 | 0.00 | 0.00 | 0.00 | 80 | 1018.5 |
| 20260903120542 | 68 | 0 | 0.0 | 0.0 | 0.00 | 0.00 | 0.00 | 79 | 1018.4 |
| 20260903120105 | 69 | 0 | 0.0 | 0.0 | 0.00 | 0.00 | 0.00 | 78 | 1018.5 |
| 20260903115547 | 69 | 0 | 0.0 | 3.0 | 0.00 | 0.00 | 0.00 | 78 | 1018.5 |
| 20260903115043 | 70 | 0 | 0.0 | 3.0 | 0.00 | 0.00 | 0.00 | 77 | 1018.4 |
| 20260903114555 | 69 | 0 | 0.0 | 3.0 | 0.00 | 0.00 | 0.00 | 78 | 1018.4 |
| 20260903114049 | 69 | 0 | 0.0 | 1.0 | 0.00 | 0.00 | 0.00 | 77 | 1018.4 |
| 20260903113547 | 70 | 0 | 0.0 | 1.0 | 0.00 | 0.00 | 0.00 | 77 | 1018.4 |
| 20260903113053 | 70 | 0 | 0.0 | 1.0 | 0.00 | 0.00 | 0.00 | 77 | 1018.4 |
| 20260903112543 | 70 | 0 | 0.0 | 1.0 | 0.00 | 0.00 | 0.00 | 77 | 1018.4 |
| 20260903112044 | 70 | 0 | 0.0 | 0.0 | 0.00 | 0.00 | 0.00 | 76 | 1018.2 |
| 20260903111608 | 71 | 0 | 0.0 | 5.0 | 0.00 | 0.00 | 0.00 | 76 | 1018.2 |
| 20260903111043 | 71 | 0 | 0.0 | 5.0 | 0.00 | 0.00 | 0.00 | 77 | 1018.2 |
| 20260903110545 | 70 | 0 | 0.0 | 0.0 | 0.00 | 0.00 | 0.00 | 77 | 1018.2 |
| 20260903110123 | 70 | 0 | 0.0 | 2.0 | 0.00 | 0.00 | 0.00 | 77 | 1018.2 |
| 20260903105544 | 71 | 0 | 0.0 | 2.0 | 0.00 | 0.00 | 0.00 | 76 | 1018.2 |
| 20260903105043 | 71 | 293 | 0.0 | 3.0 | 0.00 | 0.00 | 0.00 | 76 | 1018.0 |
| 20260903104606 | 71 | 0 | 0.0 | 3.0 | 0.00 | 0.00 | 0.00 | 76 | 1018.1 |